Date String (YYYY-MM-DD hh:mm:ss) UTC,Instrument flags,absolute air pressure of the measurement (hPa),sample flow rate (lpm),inlet stack bypass flow (lpm),air temperature of the measurement (°C),ambient temperature measured by the external sensor (°C),aerosol sample conditioner tube jacket temperature (°C),OPC LED temperature (°C),internal box temperature (°C),relative humidity of the measurement (%),span deviation,mass concentration of particles derived from Lorenz-Mie calculation of OPC scattering (μg/m³),mass concentration of particles derived from Lorenz-Mie calculation of OPC scattering (μg/m³),mass concentration of particles derived from Lorenz-Mie calculation of OPC scattering (μg/m³)
DateTimeUTC,F1_M11,P_M11,Q1_M11,Q2_M11,T1_M11,T2_M11,T3_M11,T4_M11,T5_M11,U1_M11,ZSPAN_M11,X0_M11,X2_M11,X1_M11
2023-09-20 07:00:00,SystemResetWarning,0829.3,5.01,000.00,028.7,027.3,000.0,037.0,030.3,16.4,0000.0,0007.92,0002.19,0001.52
2023-09-20 07:01:00,SystemResetWarning,0829.4,5.00,000.00,028.7,027.3,000.0,037.0,030.3,16.3,0000.0,0008.05,0002.17,0001.51
2023-09-20 07:02:00,SystemResetWarning,0829.4,5.00,000.00,028.7,027.3,000.0,037.0,030.4,16.3,0000.0,0008.01,0002.16,0001.50
2023-09-20 07:03:00,SystemResetWarning,0829.4,5.00,000.00,028.7,027.3,000.0,037.0,030.3,16.2,0000.0,0008.00,0002.13,0001.49
2023-09-20 07:04:00,SystemResetWarning,0829.4,5.00,000.00,028.7,027.3,000.0,037.0,030.4,16.3,0000.0,0008.45,0002.12,0001.50
2023-09-20 07:05:00,SystemResetWarning,0829.3,5.00,000.00,028.7,027.3,000.0,037.0,030.3,16.4,0000.0,0008.76,0002.05,0001.49
2023-09-20 07:06:00,SystemResetWarning,0829.4,5.00,000.00,028.7,027.3,000.0,037.0,030.3,16.2,0000.0,0008.49,0001.90,0001.47
2023-09-20 07:07:00,SystemResetWarning,0829.4,5.00,000.00,028.7,027.3,000.0,037.0,030.4,16.2,0000.0,0007.29,0001.83,0001.47
2023-09-20 07:08:00,SystemResetWarning,0829.3,4.99,000.00,028.7,027.3,000.0,037.1,030.4,16.3,0000.0,0006.23,0001.79,0001.46
2023-09-20 07:09:00,SystemResetWarning,0829.4,4.99,000.00,028.7,027.3,000.0,037.1,030.4,16.3,0000.0,0006.15,0001.78,0001.46
2023-09-20 07:10:00,SystemResetWarning,0829.3,5.00,000.00,028.8,027.3,000.0,037.1,030.4,16.2,0000.0,0006.36,0001.83,0001.46
2023-09-20 07:11:00,SystemResetWarning,0829.4,5.00,000.00,028.8,027.3,000.0,037.1,030.4,16.2,0000.0,0006.10,0001.88,0001.47
2023-09-20 07:12:00,SystemResetWarning,0829.4,5.00,000.00,028.8,027.3,000.0,037.1,030.4,16.3,0000.0,0005.97,0001.94,0001.47
2023-09-20 07:13:00,SystemResetWarning,0829.4,5.01,000.00,028.8,027.3,000.0,037.1,030.4,16.4,0000.0,0006.91,0001.96,0001.48
2023-09-20 07:14:00,SystemResetWarning,0829.4,5.00,000.00,028.8,027.3,000.0,037.1,030.4,16.4,0000.0,0006.89,0001.98,0001.48
2023-09-20 07:15:00,SystemResetWarning,0829.3,5.00,000.00,028.8,027.3,000.0,037.1,030.4,16.4,0000.0,0006.09,0001.99,0001.47
2023-09-20 07:16:00,SystemResetWarning,0829.3,4.99,000.00,028.8,027.3,000.0,037.1,030.4,16.4,0000.0,0005.23,0002.00,0001.47
2023-09-20 07:17:00,SystemResetWarning,0829.3,5.00,000.00,028.8,027.3,000.0,037.1,030.4,16.5,0000.0,0005.29,0002.04,0001.48
2023-09-20 07:18:00,SystemResetWarning,0829.4,4.99,000.00,028.8,027.3,000.0,037.1,030.3,16.4,0000.0,0005.25,0002.05,0001.47
2023-09-20 07:19:00,SystemResetWarning,0829.4,5.00,000.00,028.8,027.3,000.0,037.2,030.3,16.5,0000.0,0004.84,0002.03,0001.46
2023-09-20 07:20:00,SystemResetWarning,0829.4,5.00,000.00,028.8,027.3,000.0,037.2,030.4,16.4,0000.0,0004.61,0001.98,0001.46
2023-09-20 07:21:00,SystemResetWarning,0829.4,5.00,000.00,028.8,027.3,000.0,037.2,030.4,16.4,0000.0,0004.39,0001.93,0001.45
2023-09-20 07:22:00,SystemResetWarning,0829.3,5.00,000.00,028.8,027.3,000.0,037.2,030.4,16.4,0000.0,0004.72,0001.94,0001.45
2023-09-20 07:23:00,SystemResetWarning,0829.4,5.00,000.00,028.8,027.3,000.0,037.2,030.4,16.5,0000.0,0004.57,0001.90,0001.45
2023-09-20 07:24:00,SystemResetWarning,0829.3,5.00,000.00,028.8,027.3,000.0,037.2,030.4,16.4,0000.0,0003.61,0001.91,0001.46
2023-09-20 07:25:00,SystemResetWarning,0829.3,5.00,000.00,028.8,027.3,000.0,037.2,030.4,16.4,0000.0,0003.70,0001.92,0001.45
2023-09-20 07:26:00,SystemResetWarning,0829.3,5.00,000.00,028.8,027.3,000.0,037.2,030.4,16.4,0000.0,0003.62,0001.89,0001.46
2023-09-20 07:27:00,SystemResetWarning,0829.3,5.01,000.00,028.8,027.3,000.0,037.2,030.4,16.3,0000.0,0003.54,0001.87,0001.46
2023-09-20 07:28:00,SystemResetWarning,0829.3,5.00,000.00,028.8,027.3,000.0,037.2,030.4,16.3,0000.0,0003.63,0001.89,0001.44
2023-09-20 07:29:00,SystemResetWarning,0829.3,5.00,000.00,028.8,027.3,000.0,037.2,030.4,16.2,0000.0,0003.82,0001.93,0001.45
2023-09-20 07:30:00,SystemResetWarning,0829.3,5.00,000.00,028.8,027.3,000.0,037.2,030.5,16.2,0000.0,0003.76,0001.90,0001.44
2023-09-20 07:31:00,SystemResetWarning,0829.4,5.00,000.00,028.8,027.3,000.0,037.2,030.5,16.3,0000.0,0003.76,0001.90,0001.45
2023-09-20 07:32:00,SystemResetWarning,0829.4,5.00,000.00,028.8,027.4,000.0,037.2,030.4,16.3,0000.0,0003.97,0001.94,0001.46
2023-09-20 07:33:00,SystemResetWarning,0829.4,4.99,000.00,028.8,027.4,000.0,037.2,030.4,16.3,0000.0,0003.67,0001.89,0001.46
2023-09-20 07:34:00,SystemResetWarning,0829.3,5.00,000.00,028.8,027.4,000.0,037.2,030.5,16.3,0000.0,0002.99,0001.89,0001.45
2023-09-20 07:35:00,SystemResetWarning,0829.4,5.00,000.00,028.9,027.4,000.0,037.2,030.5,16.4,0000.0,0003.37,0001.86,0001.44
2023-09-20 07:36:00,SystemResetWarning,0829.4,4.99,000.00,028.9,027.4,000.0,037.2,030.5,16.4,0000.0,0003.52,0001.82,0001.44
2023-09-20 07:37:00,SystemResetWarning,0829.3,5.00,000.00,028.9,027.4,000.0,037.2,030.5,16.4,0000.0,0003.52,0001.82,0001.44
2023-09-20 07:38:00,SystemResetWarning,0829.3,4.99,000.00,028.9,027.4,000.0,037.2,030.5,16.5,0000.0,0003.66,0001.86,0001.44
2023-09-20 07:39:00,SystemResetWarning,0829.4,5.00,000.00,028.9,027.4,000.0,037.2,030.5,16.5,0000.0,0003.66,0001.85,0001.45
2023-09-20 07:40:00,SystemResetWarning,0829.3,4.99,000.00,028.9,027.4,000.0,037.2,030.4,16.5,0000.0,0003.49,0001.81,0001.45
2023-09-20 07:41:00,SystemResetWarning,0829.3,5.01,000.00,028.9,027.4,000.0,037.2,030.4,16.4,0000.0,0003.59,0001.82,0001.45
2023-09-20 07:42:00,SystemResetWarning,0829.3,5.01,000.00,028.9,027.4,000.0,037.2,030.5,16.4,0000.0,0003.66,0001.83,0001.45
2023-09-20 07:43:00,SystemResetWarning,0829.3,5.00,000.00,028.9,027.4,000.0,037.2,030.4,16.4,0000.0,0003.53,0001.79,0001.44
2023-09-20 07:44:00,SystemResetWarning,0829.3,5.00,000.00,028.9,027.4,000.0,037.3,030.4,16.5,0000.0,0003.48,0001.78,0001.43
2023-09-20 07:45:00,SystemResetWarning,0829.3,5.00,000.00,028.9,027.4,000.0,037.3,030.4,16.5,0000.0,0003.45,0001.75,0001.42
2023-09-20 07:46:00,SystemResetWarning,0829.3,5.00,000.00,028.9,027.4,000.0,037.3,030.4,16.6,0000.0,0003.19,0001.75,0001.43
2023-09-20 07:47:00,SystemResetWarning,0829.4,5.01,000.00,028.9,027.4,000.0,037.3,030.5,16.7,0000.0,0002.85,0001.77,0001.43
2023-09-20 07:48:00,SystemResetWarning,0829.3,5.00,000.00,028.9,027.4,000.0,037.3,030.5,16.6,0000.0,0002.77,0001.73,0001.41
2023-09-20 07:49:00,SystemResetWarning,0829.3,5.01,000.00,028.9,027.4,000.0,037.3,030.5,16.6,0000.0,0002.66,0001.72,0001.41
2023-09-20 07:50:00,SystemResetWarning,0829.3,5.00,000.00,028.9,027.4,000.0,037.3,030.5,16.6,0000.0,0002.58,0001.68,0001.41
2023-09-20 07:51:00,SystemResetWarning,0829.3,5.00,000.00,028.9,027.4,000.0,037.3,030.5,16.6,0000.0,0002.52,0001.65,0001.40
2023-09-20 07:52:00,SystemResetWarning,0829.3,4.99,000.00,028.9,027.4,000.0,037.3,030.5,16.6,0000.0,0002.95,0001.67,0001.40
2023-09-20 07:53:00,SystemResetWarning,0829.3,5.01,000.00,028.9,027.4,000.0,037.3,030.5,16.7,0000.0,0003.76,0001.67,0001.39
2023-09-20 07:54:00,SystemResetWarning,0829.3,5.00,000.00,028.9,027.4,000.0,037.3,030.5,16.7,0000.0,0003.78,0001.67,0001.39
2023-09-20 07:55:00,SystemResetWarning,0829.3,4.99,000.00,028.9,027.4,000.0,037.3,030.5,16.6,0000.0,0003.89,0001.69,0001.38
2023-09-20 07:56:00,SystemResetWarning,0829.4,4.99,000.00,028.9,027.4,000.0,037.3,030.5,16.6,0000.0,0003.80,0001.67,0001.38
2023-09-20 07:57:00,SystemResetWarning,0829.4,5.02,000.00,028.9,027.4,000.0,037.3,030.5,16.6,0000.0,0003.69,0001.64,0001.36
2023-09-20 07:58:00,SystemResetWarning,0829.4,5.00,000.00,028.9,027.4,000.0,037.3,030.5,16.6,0000.0,0003.68,0001.63,0001.34
2023-09-20 07:59:00,SystemResetWarning,0829.4,4.98,000.00,028.9,027.4,000.0,037.3,030.5,16.6,0000.0,0003.73,0001.65,0001.34
